Weather History for Pine River, MN

Change the Weather History Date:

Wednesday, February 13, 2013

  Actual Average Record
Temperature  
Mean Temperature 22 °F -  
Max Temperature 33 °F 25 °F 46 °F (2011)
Min Temperature 10 °F 5 °F -7 °F (2007)
Degree Days  
Heating Degree Days 44    
Moisture  
Dew Point 21 °F    
Average Humidity 82    
Maximum Humidity 100    
Minimum Humidity 70    
Precipitation  
Precipitation 0.00 in - - ()
Sea Level Pressure  
Sea Level Pressure 29.67 in    
Wind  
Wind Speed 2 mph (NNW)    
Max Wind Speed 7 mph    
Max Gust Speed -    
Visibility 9 miles    
Events Fog    
Averages and records for this station are not official NWS values.
T = Trace of Precipitation, MM = Missing Value Source: NWS Daily Summary

Daily Weather History Graph

Daily Weather History Graph

Search for Another Location

Airport:

Trip Planner

Search our weather history database for the weather conditions in past years. The results will help you decide how hot, cold, wet, or windy it might be!

Date:

Astronomy

Feb. 13, 2013 Rise Set
Actual Time 7:24 AM CST 5:39 PM CST
Civil Twilight 6:52 AM CST 6:11 PM CST
Nautical Twilight 6:17 AM CST 6:46 PM CST
Astronomical Twilight 5:42 AM CST 7:21 PM CST
Moon 8:36 AM CST (2/13) 10:02 PM CST (2/13)
Length of Visible Light 11h 18m
Length of Day
10h 15m
Waxing Crescent, 14% of the Moon is Illuminated
Feb 13
Waxing Crescent
Feb 17
First Quarter
Feb 25
Full
Mar 4
Last Quarter
Mar 11
New

Hourly Weather History & Observations

Time (CST) Temp. Windchill Dew Point Humidity Pressure Visibility Wind Dir Wind Speed Gust Speed Precip Events Conditions
12:12 AM 23.0 °F 18.4 °F 19.4 °F 86% 29.75 in 10.0 mi West 3.5 mph - N/A   Overcast
12:33 AM 23.0 °F - 19.4 °F 86% 29.74 in 10.0 mi Calm Calm - N/A   Overcast
12:53 AM 23.0 °F - 19.4 °F 86% 29.74 in 10.0 mi Calm Calm - N/A   Overcast
1:13 AM 23.0 °F - 19.4 °F 86% 29.74 in 10.0 mi Calm Calm - N/A   Overcast
1:32 AM 23.0 °F - 19.4 °F 86% 29.73 in 10.0 mi Calm Calm - N/A   Overcast
1:53 AM 23.0 °F - 19.4 °F 86% 29.73 in 10.0 mi Calm Calm - N/A   Overcast
2:11 AM 23.0 °F - 19.4 °F 86% 29.72 in 10.0 mi Calm Calm - N/A   Overcast
2:33 AM 23.0 °F - 19.4 °F 86% 29.72 in 10.0 mi Calm Calm - N/A   Overcast
2:52 AM 23.0 °F - 19.4 °F 86% 29.72 in 10.0 mi Calm Calm - N/A   Overcast
3:12 AM 23.0 °F 18.4 °F 19.4 °F 86% 29.73 in 10.0 mi West 3.5 mph - N/A   Overcast
3:33 AM 23.0 °F - 19.4 °F 86% 29.72 in 10.0 mi Calm Calm - N/A   Overcast
3:52 AM 23.0 °F 17.0 °F 19.4 °F 86% 29.71 in 10.0 mi West 4.6 mph - N/A   Overcast
4:13 AM 24.8 °F 20.5 °F 19.4 °F 80% 29.71 in 10.0 mi West 3.5 mph - N/A   Overcast
4:31 AM 23.0 °F - 19.4 °F 86% 29.71 in 10.0 mi Calm Calm - N/A   Overcast
4:52 AM 23.0 °F - 19.4 °F 86% 29.70 in 10.0 mi Calm Calm - N/A   Overcast
5:13 AM 23.0 °F - 19.4 °F 86% 29.69 in 10.0 mi Calm Calm - N/A   Overcast
5:32 AM 23.0 °F - 19.4 °F 86% 29.69 in 10.0 mi Calm Calm - N/A   Overcast
5:53 AM 19.4 °F - 17.6 °F 93% 29.69 in 10.0 mi Calm Calm - N/A   Scattered Clouds
6:13 AM 17.6 °F - 15.8 °F 93% 29.69 in 5.0 mi Calm Calm - N/A   Clear
6:32 AM 15.8 °F - 12.2 °F 86% 29.68 in 4.0 mi Calm Calm - N/A   Clear
6:53 AM 15.8 °F - 12.2 °F 86% 29.68 in 0.2 mi Calm Calm - N/A Fog Light Freezing Fog
7:13 AM 12.2 °F - 10.4 °F 92% 29.68 in 0.2 mi Calm Calm - N/A Fog Light Freezing Fog
7:33 AM 10.4 °F - 8.6 °F 92% 29.68 in 0.2 mi Calm Calm - N/A Fog Light Freezing Fog
7:52 AM 10.4 °F - 8.6 °F 92% 29.68 in 0.2 mi Calm Calm - N/A Fog Light Freezing Fog
8:12 AM 12.2 °F - 10.4 °F 92% 29.67 in 0.2 mi Calm Calm - N/A Fog Light Freezing Fog
8:33 AM 12.2 °F - 10.4 °F 92% 29.67 in 0.8 mi Calm Calm - N/A   Overcast
8:52 AM 14.0 °F - 12.2 °F 93% 29.67 in 0.2 mi Calm Calm - N/A Fog Light Freezing Fog
9:13 AM 19.4 °F - 17.6 °F 93% 29.67 in 2.5 mi Calm Calm - N/A   Clear
9:33 AM 21.2 °F - 21.2 °F 100% 29.66 in 7.0 mi Calm Calm - N/A   Clear
9:53 AM 23.0 °F 18.4 °F 21.2 °F 93% 29.66 in 10.0 mi WSW 3.5 mph - N/A   Clear
10:12 AM 24.8 °F 20.5 °F 21.2 °F 86% 29.66 in 10.0 mi NNE 3.5 mph - N/A   Clear
10:33 AM 26.6 °F 22.6 °F 23.0 °F 86% 29.66 in 10.0 mi North 3.5 mph - N/A   Clear
11:12 AM 28.4 °F - 23.0 °F 80% 29.66 in 10.0 mi Calm Calm - N/A   Clear
11:33 AM 28.4 °F - 23.0 °F 80% 29.65 in 10.0 mi Calm Calm - N/A   Clear
11:52 AM 30.2 °F 26.7 °F 24.8 °F 80% 29.65 in 10.0 mi North 3.5 mph - N/A   Clear
12:11 PM 30.2 °F 25.4 °F 24.8 °F 80% 29.64 in 10.0 mi North 4.6 mph - N/A   Clear
12:52 PM 33.8 °F - 24.8 °F 70% 29.63 in 10.0 mi Calm Calm - N/A   Clear
1:12 PM 33.8 °F - 24.8 °F 70% 29.62 in 10.0 mi Calm Calm - N/A   Clear
1:33 PM 33.8 °F - 24.8 °F 70% 29.62 in 10.0 mi Calm Calm - N/A   Clear
1:53 PM 33.8 °F - 24.8 °F 70% 29.62 in 10.0 mi Calm Calm - N/A   Clear
2:13 PM 33.8 °F 30.8 °F 24.8 °F 70% 29.61 in 10.0 mi SW 3.5 mph - N/A   Clear
2:32 PM 33.8 °F 30.8 °F 24.8 °F 70% 29.61 in 10.0 mi South 3.5 mph - N/A   Clear
2:53 PM 33.8 °F 30.8 °F 24.8 °F 70% 29.60 in 10.0 mi SW 3.5 mph - N/A   Clear
3:12 PM 33.8 °F - 24.8 °F 70% 29.61 in 10.0 mi Calm Calm - N/A   Clear
3:33 PM 33.8 °F - 24.8 °F 70% 29.61 in 10.0 mi Calm Calm - N/A   Clear
3:53 PM 33.8 °F - 24.8 °F 70% 29.61 in 10.0 mi Calm Calm - N/A   Clear
4:13 PM 33.8 °F - 24.8 °F 70% 29.61 in 10.0 mi Calm Calm - N/A   Clear
4:32 PM 33.8 °F - 24.8 °F 70% 29.61 in 10.0 mi Calm Calm - N/A   Clear
4:52 PM 33.8 °F - 24.8 °F 70% 29.61 in 10.0 mi Calm Calm - N/A   Clear
5:13 PM 32.0 °F - 24.8 °F 75% 29.61 in 10.0 mi Calm Calm - N/A   Mostly Cloudy
5:33 PM 33.8 °F - 24.8 °F 70% 29.61 in 10.0 mi Calm Calm - N/A   Overcast
5:52 PM 32.0 °F - 24.8 °F 75% 29.62 in 10.0 mi Calm Calm - N/A   Overcast
6:12 PM 30.2 °F 26.7 °F 24.8 °F 80% 29.62 in 10.0 mi North 3.5 mph - N/A   Overcast
6:32 PM 30.2 °F 25.4 °F 24.8 °F 80% 29.62 in 10.0 mi North 4.6 mph - N/A   Overcast
6:52 PM 30.2 °F 25.4 °F 24.8 °F 80% 29.63 in 10.0 mi North 4.6 mph - N/A   Overcast
7:12 PM 30.2 °F 24.3 °F 24.8 °F 80% 29.63 in 10.0 mi North 5.8 mph - N/A   Overcast
7:33 PM 30.2 °F 24.3 °F 24.8 °F 80% 29.63 in 10.0 mi NNE 5.8 mph - N/A   Overcast
7:52 PM 30.2 °F 25.4 °F 24.8 °F 80% 29.64 in 10.0 mi NNE 4.6 mph - N/A   Overcast
8:13 PM 30.2 °F 25.4 °F 24.8 °F 80% 29.64 in 10.0 mi NNE 4.6 mph - N/A   Overcast
8:32 PM 30.2 °F 25.4 °F 24.8 °F 80% 29.65 in 10.0 mi NNE 4.6 mph - N/A   Overcast
8:52 PM 30.2 °F 25.4 °F 24.8 °F 80% 29.65 in 10.0 mi NNE 4.6 mph - N/A   Overcast
9:13 PM 30.2 °F 25.4 °F 24.8 °F 80% 29.66 in 10.0 mi NNE 4.6 mph - N/A   Overcast
9:33 PM 30.2 °F 25.4 °F 24.8 °F 80% 29.67 in 10.0 mi North 4.6 mph - N/A   Overcast
9:52 PM 30.2 °F 26.7 °F 24.8 °F 80% 29.67 in 10.0 mi North 3.5 mph - N/A   Overcast
10:13 PM 30.2 °F 26.7 °F 24.8 °F 80% 29.67 in 10.0 mi NNW 3.5 mph - N/A   Overcast
10:33 PM 28.4 °F - 24.8 °F 86% 29.68 in 10.0 mi Calm Calm - N/A   Overcast
10:53 PM 28.4 °F 22.2 °F 24.8 °F 86% 29.68 in 10.0 mi NW 5.8 mph - N/A   Overcast
11:13 PM 26.6 °F 19.1 °F 23.0 °F 86% 29.69 in 10.0 mi NNW 6.9 mph - N/A   Scattered Clouds
11:33 PM 26.6 °F 19.1 °F 21.2 °F 80% 29.70 in 10.0 mi NNW 6.9 mph - N/A   Scattered Clouds
11:53 PM 26.6 °F 21.2 °F 21.2 °F 80% 29.70 in 10.0 mi NNW 4.6 mph - N/A   Scattered Clouds